• Join FlightAware (Why Join?)
  • Login
  • US Flag GB Flag 
02:37 EDT


 

Airport Tracker/Info


-or-


 

Live Flight TrackerFlight Track Log ✈ AWE3794 ✈ 15-Apr-2013 ✈ KPHL - KCLE

Flight Track Log - Related Links

Times and Time Zones

All times are in EDT time to prevent confusion due to time zone crossing. See the AWE3794 flight status page for this flight to view local times or setup timezone preferences in your user account.

Time Position Orientation Groundspeed Altitude Reporting Facility
EDT Latitude Longitude Course Direction KTS MPH feet Rate Location/Type
07:46 39.8833 -75.2167 311° West 154 177 900  Level Philadelphia TRACON
07:46 39.8881 -75.1939 75° East 169 194 2,000 1,860 Climbing FAA TRACON SMA TRACON (SMA)
07:47 39.8975 -75.1739 58° Northeast 208 239 2,400 1,620 Climbing FAA TRACON SMA TRACON (SMA)
07:47 39.9064 -75.1531 61° Northeast 216 249 3,100 2,100 Climbing FAA TRACON SMA TRACON (SMA)
07:47 39.9153 -75.1303 63° Northeast 227 261 3,800 2,460 Climbing FAA TRACON SMA TRACON (SMA)
07:48 39.9278 -75.1058 56° Northeast 230 265 4,700 2,400 Climbing FAA TRACON SMA TRACON (SMA)
07:48 39.9494 -75.0964 18° North 247 284 5,400 1,440 Climbing FAA TRACON SMA TRACON (SMA)
07:48 39.9706 -75.1014 350° North 243 280 5,700 840 Climbing FAA TRACON SMA TRACON (SMA)
07:49 40.0908 -75.4407 323° Northwest  Level FlightAware Approximate
07:49 39.9917 -75.1200 326° Northwest 235 270 6,000  Level FAA TRACON SMA TRACON (SMA)
07:49 40.0044 -75.1439 305° West 255 293 6,500 2,220 Climbing FAA TRACON SMA TRACON (SMA)
07:49 40.0194 -75.1742 303° West 260 299 7,500 2,820 Climbing FAA TRACON SMA TRACON (SMA)
07:50 40.1669 -75.5169 323° Northwest  Level FlightAware Approximate
07:50 40.0317 -75.1986 303° West 264 304 8,400  Level FAA TRACON SMA TRACON (SMA)
07:50 40.0453 -75.2239 305° West 271 312 9,200 2,400 Climbing FAA TRACON SMA TRACON (SMA)
07:50 40.0622 -75.2564 304° West 282 325 10,000 1,800 Climbing FAA TRACON SMA TRACON (SMA)
07:51 40.2414 -75.5870 311° West  Level FlightAware Approximate
07:51 40.0772 -75.2839 305° West 304 350 10,400  Level FAA TRACON SMA TRACON (SMA)
07:51 40.0922 -75.3125 304° West 308 354 11,400 2,700 Climbing FAA TRACON SMA TRACON (SMA)
07:51 40.1103 -75.3475 304° West 308 354 12,200 2,220 Climbing FAA TRACON SMA TRACON (SMA)
07:52 40.1253 -75.3758 305° West 310 357 12,900 1,320 Climbing FAA TRACON SMA TRACON (SMA)
07:52 40.1411 -75.4058 305° West 321 369 13,100 240 Climbing FAA TRACON SMA TRACON (SMA)
07:53 40.1622 -75.4458 305° West 347 399 13,100  Level FAA TRACON SMA TRACON (SMA)
07:53 40.1836 -75.4864 305° West 354 407 13,100  Level FAA TRACON SMA TRACON (SMA)
07:53 40.1964 -75.5114 304° West 355 409 13,100  Level FAA TRACON SMA TRACON (SMA)
07:53 40.2186 -75.5528 305° West 360 414 13,100  Level FAA TRACON SMA TRACON (SMA)
07:54 40.2389 -75.5844 310° West 367 422 13,100 1,620 Level FAA TRACON SMA TRACON (SMA)
07:54 40.2586 -75.6164 309° West 365 420 14,200 3,000 Climbing FAA TRACON SMA TRACON (SMA)
07:54 40.2839 -75.6525 313° West 353 406 15,100 2,100 Climbing FAA TRACON SMA TRACON (SMA)
07:55 40.3036 -75.6828 311° West 356 410 15,600 1,620 Climbing FAA TRACON SMA TRACON (SMA)
07:55 40.3286 -75.7208 311° West 358 412 16,200 1,620 Climbing FAA TRACON SMA TRACON (SMA)
07:55 40.3497 -75.7514 312° West 362 417 16,700 1,200 Climbing FAA TRACON SMA TRACON (SMA)
07:56 40.3703 -75.7828 311° West 367 422 17,000 420 Climbing FAA TRACON SMA TRACON (SMA)
07:56 40.3703 -75.7828 143° Southeast 367 422 17,000  Level FAA TRACON SMA TRACON (SMA)
07:57 40.4397 -75.9006 308° West 379 436 17,000 1,080 Level New York Center
07:58 40.4653 -76.0278 285° West 392 451 18,900 1,680 Climbing New York Center
07:59 40.4858 -76.1742 281° West 385 443 20,300 1,140 Climbing New York Center
08:00 40.5067 -76.3122 281° West 385 443 21,200 780 Climbing New York Center
08:01 40.5289 -76.4561 282° West 385 443 22,000 780 Climbing New York Center
08:02 40.5531 -76.6000 283° West 396 456 22,800 780 Climbing New York Center
08:03 40.5878 -76.7397 288° West 402 463 23,600 900 Climbing New York Center
08:04 40.6264 -76.8853 289° West 409 471 24,600 960 Climbing New York Center
08:05 40.6647 -77.0256 290° West 414 476 25,600 960 Climbing New York Center
08:06 40.7011 -77.1658 289° West 414 476 26,600 960 Climbing New York Center
08:07 40.7375 -77.3008 290° West 408 470 27,600 480 Climbing New York Center
08:09 40.7931 -77.5111 289° West 387 445 28,000 120 Climbing Cleveland Center
08:10 40.8300 -77.6522 289° West 392 451 28,000  Level Cleveland Center
08:11 40.8650 -77.7933 288° West 403 464 28,000  Level Cleveland Center
08:12 40.8994 -77.9350 288° West 408 470 28,000  Level Cleveland Center
08:13 40.9300 -78.0819 285° West 408 470 28,000  Level Cleveland Center
08:14 40.9564 -78.2461 282° West 413 475 28,000  Level Cleveland Center
08:15 40.9844 -78.3964 284° West 419 482 28,000  Level Cleveland Center
08:16 41.0078 -78.5386 282° West 413 475 28,000  Level Cleveland Center
08:17 41.0311 -78.6756 283° West 402 463 28,000  Level Cleveland Center
08:18 41.0542 -78.8125 283° West 391 450 28,000  Level Cleveland Center
08:19 41.0728 -78.9497 280° West 386 444 28,000  Level Cleveland Center
08:20 41.0956 -79.0869 282° West 386 444 28,000 -600 Level Cleveland Center
08:21 41.1161 -79.2244 281° West 386 444 26,900 -1,140 Descending Cleveland Center
08:22 41.1383 -79.3617 282° West 386 444 25,800 -1,140 Descending Cleveland Center
08:23 41.1606 -79.4992 282° West 391 450 24,700 -900 Descending Cleveland Center
08:24 41.1786 -79.6369 280° West 391 450 24,000 -360 Descending Cleveland Center
08:25 41.1961 -79.7553 281° West 386 444 24,000  Level Cleveland Center
08:26 41.2158 -79.8847 281° West 375 432 24,000  Level Cleveland Center
08:27 41.2375 -80.0253 282° West 364 419 24,000  Level Cleveland Center
08:28 41.2567 -80.1494 282° West 353 406 24,000  Level Cleveland Center
08:29 41.2758 -80.2764 281° West 353 406 24,000 -660 Level Cleveland Center
08:30 41.2928 -80.3981 281° West 361 415 22,700 -1,080 Descending Cleveland Center
08:31 41.3306 -80.5333 290° West 378 435 21,900 -1,680 Descending Cleveland Center
08:32 41.3700 -80.6578 293° West 378 435 19,400 -2,400 Descending Cleveland Center
08:33 41.4075 -80.7881 291° West 372 428 17,100 -2,400 Descending Cleveland Center
08:34 41.4447 -80.9100 292° West 367 422 14,700 -2,640 Descending Cleveland Center
08:34 41.4611 -80.9711 290° West 368 423 13,600 -2,400 Descending Cleveland Center
08:35 41.4797 -81.0378 290° West 367 422 12,300 -2,160 Descending Cleveland Center
08:36 41.5000 -81.1597 283° West 348 400 10,100 -1,200 Descending Cleveland Center
08:37 41.4992 -81.2789 270° West 328 377 10,000 -300 Descending Cleveland Center
08:38 41.4964 -81.3956 268° West 323 372 9,500 -1,200 Descending Cleveland Center
08:39 41.4936 -81.5061 268° West 296 341 7,600 -2,040 Descending Cleveland Center
08:40 41.4906 -81.6089 268° West 282 325 5,400 -2,220 Descending Cleveland Center